Tracking 30995 objects as of 5-Jul-2025
HD Live streaming from Space Station
objects crossing your sky now

SCOUT A-1 DEB

Track SCOUT A-1 DEB now!
10-day predictions


NORAD ID: 18496
Int'l Code: 1973-081D
Perigee: 868.2 km
Apogee: 1,066.6 km
Inclination: 89.9 °
Period: 104.3 minutes
Semi major axis: 7338 km
RCS: 0.052 m2 (small)
Launch date: October 30, 1973
Source: United States (US)
Launch site: AIR FORCE WESTERN TEST RANGE (AFWTR)

Note: This is SATELLITE DEBRIS
Your satellite tracking list
Your tracking list is empty




NASA's NSSDC Master Catalog

Two Line Element Set (TLE):
1 18496U 73081D   25185.76412318  .00000192  00000-0  16007-3 0  9999
2 18496  89.9345 115.9033 0135136 177.9128 211.7941 13.81018934879382
Source of the keplerian elements: AFSPC